User: anonymous   Login
Location: Unspecified
(0.0000°N, 0.0000°E)
Time: 01:44:55
(UTC+00:00)
Language:

USA 264 - Orbit

View from above orbital plane
View from above orbital plane
View from above satellite
View from above satellite

Ground track
Ground track

The orbit data is extracted from the following two-line orbital elements,

1 40964U 15058A   18344.69810525 0.00000000  00000-0  00000-0 0    01
2 40964  63.4376 222.9418 0028000 164.5389 195.4611 13.40770920    08
Epoch (UTC): 10 December 2018 16:45:16
Eccentricity: 0.0028000
inclination: 63.4376°
perigee height: 1085 km
apogee height: 1127 km
right ascension of ascending node: 222.9418°
argument of perigee: 164.5389°
revolutions per day: 13.40770920
mean anomaly at epoch: 195.4611°
orbit number at epoch: 0

The dashed part of the orbit path shows where the satellite is in the earth's shadow,  

DLR